Regional Weather Roundup
Issued by NWS Sioux Falls, SD

Home | Current Version | Previous Version | Text Only | Print | Product List | Glossary On
Versions: 1 2 3 4 5 6 7 8 9 10 11 12 13 14 15 16 17 18 19 20 21 22 23 24 25 26 27 28 29 30 31 32 33 34 35 36 37 38 39 40 41 42 43 44 45 46 47 48 49 50
000
ASUS43 KFSD 311302
RWRFSD

WEATHER ROUNDUP FOR SE SOUTH DAKOTA/SW MINNESOTA/NW IOWA
NATIONAL WEATHER SERVICE SIOUX FALLS SD
800 AM CDT MON AUG 31 2015

NOTE: "FAIR" INDICATES FEW OR NO CLOUDS BELOW 12,000 FEET WITH NO
SIGNIFICANT WEATHER AND OR OBSTRUCTIONS TO VISIBILITY.


SDZ038>040-050-052>070-311400-
SOUTHEAST SOUTH DAKOTA

CITY           SKY/WX    TMP DP  RH WIND       PRES   REMARKS
BROOKINGS      PTSUNNY   64  61  88 S12       29.89S
CHAMBERLAIN    NOT AVBL
HURON          SUNNY     67  63  87 S14G24    29.76S
MADISON        FAIR      64  64 100 S13G20    29.88S
MITCHELL       SUNNY     67  64  90 S12       29.82R
SIOUX FALLS    MOSUNNY   66  64  93 S12       29.89S
WINNER         FAIR      72  53  51 S23G30    29.78R
YANKTON        SUNNY     66  63  88 S5        29.88R
$$

MNZ071-072-080-081-089-090-097-098-311400-
SOUTHWEST MINNESOTA

CITY           SKY/WX    TMP DP  RH WIND       PRES   REMARKS
FAIRMONT       CLOUDY    66  61  82 S10       29.95S VSB 1
JACKSON        SUNNY     66  64  94 S9        29.95S FOG
LUVERNE        FOG       64  63  94 S10       29.92S VSB 1/2
MARSHALL       SUNNY     68  61  77 SW23G30   29.85R
MONTEVIDEO     SUNNY     66  66 100 SW9       29.85S FOG
PIPESTONE      SUNNY     66  64  94 S10G18    29.90S FOG
REDWOOD FALLS  SUNNY     66  64  93 S12       29.88S FOG
TRACY          SUNNY     68  66  92 S18G24    29.87F FOG
WINDOM         SUNNY     68  64  88 S14       29.93S
WORTHINGTON    MOSUNNY   64  61  88 S10       29.94R
$$

IAZ001>003-012>014-020>022-031-032-NEZ013-014-SDZ071-311400-
NORTHWEST IOWA

CITY           SKY/WX    TMP DP  RH WIND       PRES   REMARKS
DENISON        SUNNY     66  66 100 MISG      29.95S FOG
ESTHERVILLE    FOG       63  63 100 S9        29.95S VSB 1/4
SIOUX CITY     FOG       64  62  93 SE6       29.93S VSB 1/4
SPENCER        SUNNY     64  62  93 S8        29.96R FOG
$$

ABBREVIATIONS USED IN REMARKS
   TC - TEMPERATURE IN CELSIUS
  WCI - WIND CHILL INDEX
   HX - HEAT INDEX
  VSB - VISIBILITY



USA.gov is the U.S. government's official web portal to all federal, state and local government web resources and services.